[[{"header":{"parameterUnit":"m.s-1","parameterCategory":1,"la1":30.2991,"la2":30.254,"lo1":-89.0895,"lo2":-89.0444,"dy":0.0017,"dx":0.0017,"nx":28,"ny":28,"refTime":"2024-06-12T21:00:00:Z","depth":0,"parameterNumber":2,"parameterNumberName":"U-component_of_WINDS"},"data":[0,0,0,0,0,0,0,0,0,0,0,0,0,0,0,0,0,0,0,0,0,0,0,0,0,0,0,0,0,0,0,0,0,0,0,0,0,0,0,0,0,0,0,0,0,0,0,0,0,0,0,0,0,0,0,0,0,0,-2.2704,-2.2704,0,-2.2717,-2.2718,-2.2718,-2.2685,-2.2684,-2.2683,-2.2682,-2.2696,-2.2698,-2.2699,0,0,0,0,0,0,0,0,0,0,0,0,0,-2.265,-2.2652,-2.2704,-2.2704,-2.2704,-2.2717,-2.2718,-2.2718,-2.2685,-2.2684,-2.2683,-2.2682,-2.2696,-2.2697,-2.2699,0,0,0,0,0,0,0,0,0,0,0,0,0,-2.267,-2.2652,-2.2704,-2.269,-2.2688,-2.2717,-2.2718,-2.2718,-2.2686,-2.2684,-2.2683,-2.2681,-2.2695,-2.2697,-2.2699,-2.2743,0,0,-2.2705,-2.2706,0,0,0,0,0,0,0,0,-2.2669,-2.2672,-2.2691,-2.2691,-2.2689,-2.2698,-2.2704,-2.2726,-2.2686,-2.2687,-2.2682,-2.268,-2.2698,-2.27,-2.2706,-2.2743,-2.2744,-2.2706,-2.2707,-2.2708,-2.2708,0,0,0,0,0,0,0,-2.2668,-2.2671,-2.2709,-2.2692,-2.2691,-2.2683,-2.2684,-2.2708,-2.2701,-2.2687,-2.2684,-2.2686,-2.2697,-2.2704,-2.2706,-2.2744,-2.2706,-2.2707,-2.2709,-2.2709,-2.282,-2.2822,0,0,0,0,0,0,-2.2668,-2.267,-2.2709,-2.271,-2.2675,-2.2685,-2.2686,-2.2697,-2.2701,-2.27,-2.2688,-2.2685,-2.2701,-2.2704,-2.2706,-2.2759,-2.2708,-2.271,-2.2711,-2.2818,-2.2821,-2.2822,0,0,0,0,0,0,-2.2667,-2.2672,-2.2708,-2.2689,-2.2693,-2.2688,-2.27,-2.2698,-2.2705,-2.2701,-2.27,-2.2696,-2.27,-2.2703,-2.2734,-2.2759,-2.271,-2.2712,-2.2816,-2.2819,-2.2821,-2.2864,0,0,0,0,0,0,-2.2666,-2.2671,-2.2688,-2.269,-2.2694,-2.2736,-2.2701,-2.2699,-2.2708,-2.2704,-2.2709,-2.2708,-2.2699,-2.2732,-2.2736,-2.2761,-2.2714,-2.2814,-2.2818,-2.2821,-2.286,-2.2868,-2.2874,0,0,0,0,0,-2.2664,-2.2699,-2.2689,-2.2693,-2.2715,-2.2737,-2.274,-2.2729,-2.271,-2.2727,-2.2725,-2.2708,-2.2755,-2.2735,-2.274,-2.2766,-2.2813,-2.2817,-2.282,-2.2857,-2.2866,-2.2874,0,0,0,0,0,0,-2.2699,-2.2699,-2.2688,-2.2724,-2.2731,-2.2732,-2.2752,-2.2739,-2.2751,-2.2747,-2.2733,-2.2735,-2.2769,-2.277,-2.2747,-2.2809,-2.2781,-2.2786,-2.2807,-2.2816,-2.2822,-2.2822,-2.2716,0,0,0,0,0,-2.2711,-2.273,-2.2728,-2.2761,-2.2765,-2.2758,-2.2767,-2.2759,-2.2765,-2.2768,-2.2768,-2.2776,-2.2793,-2.2804,-2.2819,-2.286,-2.2861,-2.288,-2.2887,-2.2893,-2.2898,-2.2922,-2.2931,-2.2835,-2.2835,-2.2835,0,0,-2.2736,-2.2738,-2.2751,-2.2768,-2.2772,-2.2792,-2.2761,-2.2783,-2.2798,-2.2771,-2.2801,-2.2802,-2.2809,-2.2846,-2.2862,-2.2848,-2.2924,-2.2898,-2.2902,-2.2904,-2.2927,-2.2936,-2.2944,-2.2838,-2.2837,-2.2837,0,0,-2.2793,-2.2796,-2.2824,-2.2829,-2.2836,-2.2832,-2.2839,-2.2842,-2.2841,-2.2871,-2.2852,-2.287,-2.2898,-2.2905,-2.2912,-2.2972,-2.2958,-2.2978,-2.3014,-2.3037,-2.3045,-2.3051,-2.3075,-2.3083,-2.2982,-2.2982,-2.2982,0,-2.2823,-2.2853,-2.284,-2.2864,-2.2873,-2.285,-2.288,-2.2885,-2.2897,-2.2904,-2.2887,-2.2924,-2.2927,-2.2966,-2.2981,-2.2987,-2.2996,-2.2978,-2.3045,-2.3051,-2.3057,-2.3079,-2.3088,-2.2985,-2.2985,-2.2984,-2.2984,0,-2.2891,-2.2911,-2.2933,-2.2946,-2.2957,-2.2984,-2.2976,-2.2988,-2.2979,-2.2976,-2.3008,-2.3011,-2.3027,-2.3035,-2.3026,-2.3074,-2.3065,-2.3047,-2.3019,-2.3069,-2.309,-2.3098,-2.2989,-2.2988,-2.2987,-2.2986,0,0,-2.297,-2.2976,-2.2985,-2.2991,-2.2998,-2.3014,-2.304,-2.3056,-2.3068,-2.3077,-2.3099,-2.3124,-2.3108,-2.3116,-2.3107,-2.3128,-2.3178,-2.3108,-2.3108,-2.3122,-2.3233,-2.3248,-2.3258,-2.3168,-2.3169,-2.3171,-2.3233,0,-2.3028,-2.3073,-2.3063,-2.3107,-2.3127,-2.3106,-2.3129,-2.3136,-2.3134,-2.3151,-2.3149,-2.3168,-2.3144,-2.315,-2.3169,-2.3168,-2.3201,-2.3163,-2.319,-2.3191,-2.3191,-2.3269,-2.3284,-2.3343,-2.3241,-2.3243,-2.3244,0,-2.3101,-2.3114,-2.316,-2.3165,-2.3173,-2.3194,-2.3209,-2.3225,-2.3233,-2.323,-2.324,-2.3228,-2.3254,-2.3225,-2.3262,-2.3237,-2.3247,-2.3249,-2.3251,-2.3254,-2.3222,-2.3276,-2.3362,-2.3372,-2.3256,-2.3255,-2.3254,0,-2.3157,-2.3185,-2.3218,-2.3223,-2.3229,-2.3245,-2.3248,-2.3254,-2.3265,-2.3278,-2.3285,-2.3301,-2.331,-2.3323,-2.3315,-2.3294,-2.3355,-2.3324,-2.3355,-2.3355,-2.337,-2.3369,-2.346,-2.3373,-2.3373,-2.3373,-2.3373,0,-2.3223,-2.3253,-2.3243,-2.3263,-2.3296,-2.3285,-2.3318,-2.3319,-2.3325,-2.3345,-2.3327,-2.3347,-2.3335,-2.3354,-2.3348,-2.3381,-2.3384,-2.3384,-2.3383,-2.3387,-2.3387,-2.3395,-2.3391,-2.3375,-2.3375,-2.3374,-2.3374,0,-2.3292,-2.3286,-2.332,-2.3324,-2.3325,-2.335,-2.3353,-2.3372,-2.3369,-2.3395,-2.3401,-2.3396,-2.3418,-2.3411,-2.3434,-2.343,-2.3473,-2.3465,-2.3471,-2.3469,-2.3501,-2.3499,-2.3602,-2.3615,-2.3518,-2.3519,-2.3519,0,-2.3336,-2.3358,-2.3364,-2.3377,-2.3382,-2.3402,-2.3413,-2.3403,-2.3415,-2.3427,-2.3445,-2.3465,-2.348,-2.3515,-2.3515,-2.3533,-2.3526,-2.3561,-2.3529,-2.3533,-2.3529,-2.3529,-2.3532,-2.3568,-2.3569,-2.357,-2.3571,0,-2.3414,-2.3411,-2.3428,-2.3444,-2.3459,-2.3471,-2.3482,-2.3493,-2.3483,-2.3498,-2.352,-2.3533,-2.3556,-2.3577,-2.3593,-2.3597,-2.3584,-2.3581,-2.3589,-2.3595,-2.3598,-2.3599,-2.349,-2.3579,-2.3578,-2.3577,-2.3577,-2.3577,-2.3473,-2.3493,-2.3501,-2.3521,-2.3528,-2.3539,-2.3558,-2.3558,-2.3576,-2.3595,-2.3587,-2.3613,-2.3622,-2.3642,-2.3648,-2.3669,-2.3656,-2.3667,-2.3671,-2.3674,-2.368,-2.3593,-2.3672,-2.3671,-2.3671,-2.3671,-2.3671,0,-2.3553,-2.3557,-2.3576,-2.3592,-2.3608,-2.3593,-2.3604,-2.3619,-2.3642,-2.3651,-2.3667,-2.3693,-2.3713,-2.3715,-2.3734,-2.375,-2.3744,-2.3756,-2.3756,-2.3757,-2.3689,-2.3681,-2.376,-2.376,-2.376,-2.376,-2.376,-2.376,-2.3597,-2.363,-2.3628,-2.3665,-2.3669,-2.3695,-2.3703,-2.3713,-2.3721,-2.3751,-2.3768,-2.3768,-2.3775,-2.3794,-2.3813,-2.3812,-2.3821,-2.3836,-2.3834,-2.377,-2.3762,-2.3753,-2.3745,-2.3837,-2.3837,-2.39,-2.3901,-2.3901]},{"header":{"parameterUnit":"m.s-1","parameterCategory":1,"la1":30.2991,"la2":30.254,"lo1":-89.0895,"lo2":-89.0444,"dy":0.0017,"dx":0.0017,"nx":28,"ny":28,"refTime":"2024-06-12T21:00:00:Z","depth":0,"parameterNumber":3,"parameterNumberName":"V-component_of_WINDS"},"data":[0,0,0,0,0,0,0,0,0,0,0,0,0,0,0,0,0,0,0,0,0,0,0,0,0,0,0,0,0,0,0,0,0,0,0,0,0,0,0,0,0,0,0,0,0,0,0,0,0,0,0,0,0,0,0,0,0,0,-1.8277,-1.8277,0,-1.8214,-1.8213,-1.8213,-1.8171,-1.817,-1.817,-1.817,-1.81,-1.8099,-1.8097,0,0,0,0,0,0,0,0,0,0,0,0,0,-1.8357,-1.8356,-1.8277,-1.8277,-1.8276,-1.8214,-1.8213,-1.8212,-1.8171,-1.817,-1.817,-1.817,-1.8101,-1.8099,-1.8097,0,0,0,0,0,0,0,0,0,0,0,0,0,-1.8311,-1.8356,-1.8277,-1.8248,-1.8244,-1.8214,-1.8213,-1.8212,-1.8171,-1.817,-1.817,-1.817,-1.8101,-1.8099,-1.8097,-1.809,0,0,-1.8089,-1.8088,0,0,0,0,0,0,0,0,-1.8314,-1.8308,-1.8253,-1.825,-1.8246,-1.82,-1.8216,-1.8171,-1.8171,-1.8199,-1.817,-1.8169,-1.8133,-1.8128,-1.8117,-1.8087,-1.8084,-1.8089,-1.8088,-1.8087,-1.8086,0,0,0,0,0,0,0,-1.8317,-1.8311,-1.8252,-1.8252,-1.8248,-1.8236,-1.8229,-1.8207,-1.8169,-1.8196,-1.8193,-1.8186,-1.8131,-1.812,-1.8115,-1.8083,-1.8089,-1.8087,-1.8086,-1.8085,-1.8043,-1.8043,0,0,0,0,0,0,-1.8325,-1.8314,-1.8254,-1.825,-1.828,-1.8235,-1.8227,-1.8215,-1.8169,-1.8162,-1.8187,-1.8185,-1.8124,-1.8118,-1.8113,-1.8102,-1.8087,-1.8084,-1.8083,-1.8042,-1.8043,-1.8043,0,0,0,0,0,0,-1.8327,-1.8321,-1.8257,-1.8281,-1.8272,-1.8234,-1.8221,-1.8214,-1.8202,-1.8162,-1.8154,-1.8182,-1.8123,-1.8116,-1.8096,-1.8099,-1.8083,-1.8081,-1.8042,-1.8042,-1.8043,-1.808,0,0,0,0,0,0,-1.833,-1.8322,-1.832,-1.8281,-1.8271,-1.8243,-1.8221,-1.8213,-1.8199,-1.8195,-1.8156,-1.8149,-1.8122,-1.81,-1.8094,-1.8095,-1.8079,-1.8041,-1.8042,-1.8043,-1.8079,-1.8082,-1.8085,0,0,0,0,0,-1.8333,-1.8332,-1.832,-1.8313,-1.8268,-1.8243,-1.8237,-1.8209,-1.8199,-1.8196,-1.817,-1.815,-1.8099,-1.8098,-1.8091,-1.8092,-1.8041,-1.8042,-1.8043,-1.8077,-1.8081,-1.8085,0,0,0,0,0,0,-1.837,-1.8326,-1.8313,-1.83,-1.8276,-1.8236,-1.8232,-1.8214,-1.8191,-1.8188,-1.8152,-1.8143,-1.8127,-1.8107,-1.8107,-1.8082,-1.8068,-1.8067,-1.8096,-1.81,-1.8103,-1.8108,-1.8077,0,0,0,0,0,-1.8377,-1.8362,-1.8324,-1.8316,-1.8305,-1.8271,-1.8258,-1.8239,-1.8212,-1.8201,-1.8173,-1.8147,-1.8125,-1.8111,-1.8088,-1.8075,-1.8065,-1.8072,-1.8075,-1.8078,-1.8078,-1.8069,-1.8071,-1.8045,-1.8045,-1.8045,0,0,-1.8391,-1.8365,-1.8358,-1.8323,-1.8302,-1.8286,-1.8262,-1.8246,-1.8233,-1.8198,-1.8178,-1.8157,-1.8124,-1.8108,-1.8099,-1.8091,-1.8082,-1.8079,-1.8081,-1.8079,-1.807,-1.8072,-1.8074,-1.8046,-1.8046,-1.8046,0,0,-1.8408,-1.8387,-1.8379,-1.8358,-1.8328,-1.8305,-1.8303,-1.8266,-1.8251,-1.8231,-1.8204,-1.8187,-1.815,-1.8128,-1.8112,-1.812,-1.81,-1.8114,-1.813,-1.8122,-1.8124,-1.8126,-1.8129,-1.813,-1.8114,-1.8114,-1.8114,0,-1.8429,-1.8405,-1.8376,-1.8362,-1.8347,-1.8315,-1.8305,-1.8286,-1.8249,-1.8239,-1.823,-1.8183,-1.8159,-1.8137,-1.8139,-1.8127,-1.8123,-1.8119,-1.8126,-1.8128,-1.8129,-1.8131,-1.8132,-1.8116,-1.8115,-1.8115,-1.8115,0,-1.8432,-1.8416,-1.8412,-1.8379,-1.8364,-1.8352,-1.8319,-1.8306,-1.8287,-1.8265,-1.8244,-1.8214,-1.8185,-1.8178,-1.8159,-1.8153,-1.8148,-1.8133,-1.8118,-1.8134,-1.8135,-1.8136,-1.8118,-1.8118,-1.8117,-1.8117,0,0,-1.8472,-1.8423,-1.8422,-1.8407,-1.837,-1.8356,-1.8342,-1.8315,-1.8305,-1.8279,-1.8266,-1.8236,-1.8221,-1.8203,-1.8181,-1.8174,-1.8182,-1.8159,-1.8158,-1.8165,-1.8173,-1.8186,-1.8187,-1.8168,-1.8168,-1.8168,-1.8176,0,-1.8484,-1.846,-1.8432,-1.8416,-1.8401,-1.837,-1.8357,-1.8332,-1.8311,-1.8293,-1.8268,-1.8247,-1.823,-1.8219,-1.821,-1.8183,-1.8184,-1.8182,-1.8155,-1.8154,-1.8165,-1.8188,-1.8201,-1.821,-1.8177,-1.8177,-1.8177,0,-1.8496,-1.8474,-1.8457,-1.8422,-1.8414,-1.8404,-1.8377,-1.836,-1.8331,-1.8315,-1.8295,-1.8272,-1.8253,-1.824,-1.8214,-1.8213,-1.82,-1.8185,-1.8184,-1.8181,-1.8167,-1.8186,-1.8212,-1.8214,-1.8178,-1.8178,-1.8178,0,-1.8527,-1.8493,-1.8479,-1.8466,-1.8425,-1.8418,-1.84,-1.837,-1.8356,-1.8331,-1.8321,-1.8294,-1.828,-1.8259,-1.8228,-1.8221,-1.8205,-1.8188,-1.8191,-1.8192,-1.819,-1.819,-1.8215,-1.818,-1.818,-1.818,-1.818,0,-1.8545,-1.8535,-1.8493,-1.8484,-1.8472,-1.844,-1.8429,-1.8408,-1.8381,-1.8367,-1.8337,-1.8324,-1.8283,-1.8265,-1.824,-1.8222,-1.8215,-1.8201,-1.8195,-1.8205,-1.8207,-1.8196,-1.8195,-1.818,-1.818,-1.818,-1.818,0,-1.8579,-1.855,-1.8532,-1.8494,-1.8484,-1.8477,-1.8444,-1.8433,-1.841,-1.8392,-1.8385,-1.8348,-1.8324,-1.8291,-1.8256,-1.824,-1.8225,-1.8215,-1.8236,-1.8232,-1.8237,-1.8237,-1.8256,-1.8257,-1.8221,-1.8222,-1.8222,0,-1.8592,-1.8585,-1.8546,-1.8535,-1.8519,-1.8501,-1.8486,-1.8453,-1.8439,-1.8405,-1.8398,-1.8372,-1.835,-1.8313,-1.8281,-1.8255,-1.8244,-1.8252,-1.8239,-1.8249,-1.8244,-1.8246,-1.8244,-1.8255,-1.8256,-1.8256,-1.8257,0,-1.8619,-1.8605,-1.8586,-1.8562,-1.8546,-1.8525,-1.8502,-1.8494,-1.8456,-1.8441,-1.8417,-1.84,-1.8365,-1.834,-1.8309,-1.8288,-1.8266,-1.8261,-1.826,-1.827,-1.8283,-1.8277,-1.8245,-1.8261,-1.826,-1.826,-1.826,-1.826,-1.8643,-1.8635,-1.8607,-1.8587,-1.8567,-1.8546,-1.8534,-1.851,-1.849,-1.8461,-1.8441,-1.8418,-1.8388,-1.8344,-1.8324,-1.8305,-1.8296,-1.8294,-1.8294,-1.8295,-1.8298,-1.8286,-1.8299,-1.8298,-1.8298,-1.8298,-1.8298,0,-1.8669,-1.865,-1.8631,-1.8602,-1.8585,-1.8567,-1.854,-1.8527,-1.8508,-1.8482,-1.8461,-1.8434,-1.8408,-1.8375,-1.8347,-1.8338,-1.8327,-1.8332,-1.8332,-1.8328,-1.8307,-1.8311,-1.8341,-1.8341,-1.8341,-1.8341,-1.8341,-1.8341,-1.8681,-1.8667,-1.865,-1.8624,-1.8604,-1.8583,-1.8569,-1.8549,-1.8529,-1.85,-1.8479,-1.8458,-1.8428,-1.8398,-1.8374,-1.8364,-1.8355,-1.8364,-1.8351,-1.8333,-1.8329,-1.8326,-1.8329,-1.8362,-1.8362,-1.8373,-1.8373,-1.8373]}]]